Time,TemperatureF,DewpointF,PressureIn,WindDirection,WindDirectionDegrees,WindSpeedMPH,WindSpeedGustMPH,Humidity,HourlyPrecipIn,Conditions,Clouds,dailyrainin,SoftwareType,DateUTC
2013-02-25 00:00:00,35.4,19.1,28.97,NE,55,0.0,0.0,51,0.00,,SKC,0.00,VWS V14.00,2013-02-25 05:00:00,
2013-02-25 00:05:00,35.4,19.1,28.97,NE,56,0.0,0.0,51,0.00,,SKC,0.00,VWS V14.00,2013-02-25 05:05:00,
2013-02-25 00:09:00,35.4,19.1,28.97,NE,55,0.0,0.0,51,0.00,,SKC,0.00,VWS V14.00,2013-02-25 05:09:00,
2013-02-25 00:15:00,34.9,18.6,28.97,NE,55,0.0,0.0,51,0.00,,SKC,0.00,VWS V14.00,2013-02-25 05:15:00,
2013-02-25 00:20:00,34.3,18.1,28.97,NE,55,0.0,0.0,51,0.00,,SKC,0.00,VWS V14.00,2013-02-25 05:20:00,
2013-02-25 00:25:00,34.3,18.1,28.97,NE,55,0.0,0.0,51,0.00,,SKC,0.00,VWS V14.00,2013-02-25 05:25:00,
2013-02-25 00:29:00,34.3,18.1,28.97,NE,56,0.0,0.0,51,0.00,,SKC,0.00,VWS V14.00,2013-02-25 05:29:00,
2013-02-25 00:35:00,34.3,18.1,28.97,NE,55,0.0,0.0,51,0.00,,SKC,0.00,VWS V14.00,2013-02-25 05:35:00,
2013-02-25 00:40:00,34.3,18.5,28.97,NE,55,0.0,0.0,52,0.00,,SKC,0.00,VWS V14.00,2013-02-25 05:40:00,
2013-02-25 00:45:00,34.3,18.5,28.97,NE,55,0.0,0.0,52,0.00,,SKC,0.00,VWS V14.00,2013-02-25 05:45:00,
2013-02-25 00:50:00,34.5,18.7,28.97,NE,55,0.0,0.0,52,0.00,,SKC,0.00,VWS V14.00,2013-02-25 05:50:00,
2013-02-25 00:55:00,34.3,18.5,28.97,ESE,113,0.0,0.0,52,0.00,,SKC,0.00,VWS V14.00,2013-02-25 05:55:00,
2013-02-25 01:00:00,34.3,18.5,28.97,SSE,156,0.0,0.0,52,0.00,,SKC,0.00,VWS V14.00,2013-02-25 06:00:00,
2013-02-25 01:05:00,34.3,18.5,28.97,SSE,156,0.0,0.0,52,0.00,,SKC,0.00,VWS V14.00,2013-02-25 06:05:00,
2013-02-25 01:10:00,34.2,18.4,28.97,SSE,156,0.0,0.0,52,0.00,,SKC,0.00,VWS V14.00,2013-02-25 06:10:00,
2013-02-25 01:15:00,33.8,18.0,28.97,SSE,156,0.0,0.0,52,0.00,,SKC,0.00,VWS V14.00,2013-02-25 06:15:00,
2013-02-25 01:20:00,33.8,18.0,28.97,SSE,156,0.0,0.0,52,0.00,,SKC,0.00,VWS V14.00,2013-02-25 06:20:00,
2013-02-25 01:25:00,33.6,18.3,28.97,SSE,156,0.0,0.0,53,0.00,,SKC,0.00,VWS V14.00,2013-02-25 06:25:00,
2013-02-25 01:30:00,33.4,18.2,28.97,SSE,156,0.0,0.0,53,0.00,,SKC,0.00,VWS V14.00,2013-02-25 06:30:00,
2013-02-25 01:35:00,32.9,17.7,28.97,SSE,156,0.0,0.0,53,0.00,,SKC,0.00,VWS V14.00,2013-02-25 06:35:00,
2013-02-25 01:40:00,32.7,17.5,28.97,SSE,156,0.0,0.0,53,0.00,,SKC,0.00,VWS V14.00,2013-02-25 06:40:00,
2013-02-25 01:45:00,32.9,17.7,28.97,SSE,156,0.0,0.0,53,0.00,,SKC,0.00,VWS V14.00,2013-02-25 06:45:00,
2013-02-25 01:50:00,33.1,18.3,28.97,SSE,157,0.0,0.0,54,0.00,,SKC,0.00,VWS V14.00,2013-02-25 06:50:00,
2013-02-25 01:55:00,33.1,18.3,28.97,SSE,157,0.0,0.0,54,0.00,,SKC,0.00,VWS V14.00,2013-02-25 06:55:00,
2013-02-25 02:00:00,32.9,18.1,28.97,SSE,157,0.0,0.0,54,0.00,,SKC,0.00,VWS V14.00,2013-02-25 07:00:00,
2013-02-25 02:05:00,32.7,17.9,28.97,SSE,157,0.0,0.0,54,0.00,,SKC,0.00,VWS V14.00,2013-02-25 07:05:00,
2013-02-25 02:10:00,32.9,18.1,28.97,SSE,157,0.0,0.0,54,0.00,,SKC,0.00,VWS V14.00,2013-02-25 07:10:00,
2013-02-25 02:15:00,32.9,18.1,28.97,SSE,157,0.0,0.0,54,0.00,,SKC,0.00,VWS V14.00,2013-02-25 07:15:00,
2013-02-25 02:20:00,32.7,17.9,28.94,SSE,157,0.0,0.0,54,0.00,,SKC,0.00,VWS V14.00,2013-02-25 07:20:00,
2013-02-25 02:25:00,32.5,17.8,28.94,SSE,157,0.0,0.0,54,0.00,,SKC,0.00,VWS V14.00,2013-02-25 07:25:00,
2013-02-25 02:30:00,32.4,17.6,28.94,SSE,157,0.0,0.0,54,0.00,,SKC,0.00,VWS V14.00,2013-02-25 07:30:00,
2013-02-25 02:35:00,32.4,18.0,28.94,SSE,157,0.0,0.0,55,0.00,,SKC,0.00,VWS V14.00,2013-02-25 07:35:00,
2013-02-25 02:40:00,32.5,18.2,28.94,SSE,157,0.0,0.0,55,0.00,,SKC,0.00,VWS V14.00,2013-02-25 07:40:00,
2013-02-25 02:45:00,32.7,18.4,28.94,SSE,157,0.0,0.0,55,0.00,,SKC,0.00,VWS V14.00,2013-02-25 07:45:00,
2013-02-25 02:50:00,32.5,18.2,28.94,SSE,157,0.0,0.0,55,0.00,,SKC,0.00,VWS V14.00,2013-02-25 07:50:00,
2013-02-25 02:55:00,32.5,18.2,28.94,SSE,157,0.0,0.0,55,0.00,,SKC,0.00,VWS V14.00,2013-02-25 07:55:00,
2013-02-25 03:00:00,32.7,18.4,28.94,SSE,157,0.0,0.0,55,0.00,,SKC,0.00,VWS V14.00,2013-02-25 08:00:00,
2013-02-25 03:05:00,32.5,18.2,28.97,SSE,157,0.0,0.0,55,0.00,,SKC,0.00,VWS V14.00,2013-02-25 08:05:00,
2013-02-25 03:10:00,32.5,18.2,28.97,SSE,157,0.0,0.0,55,0.00,,SKC,0.00,VWS V14.00,2013-02-25 08:10:00,
2013-02-25 03:15:00,32.5,18.6,28.97,SSE,157,0.0,0.0,56,0.00,,SKC,0.00,VWS V14.00,2013-02-25 08:15:00,
2013-02-25 03:20:00,32.5,18.6,28.94,SSE,157,0.0,0.0,56,0.00,,SKC,0.00,VWS V14.00,2013-02-25 08:20:00,
2013-02-25 03:25:00,32.7,18.8,28.94,SSE,157,0.0,0.0,56,0.00,,SKC,0.00,VWS V14.00,2013-02-25 08:25:00,
2013-02-25 03:30:00,32.7,18.8,28.94,SSE,157,0.0,0.0,56,0.00,,SKC,0.00,VWS V14.00,2013-02-25 08:30:00,
2013-02-25 03:36:00,32.7,18.8,28.94,SSE,157,0.0,0.0,56,0.00,,SKC,0.00,VWS V14.00,2013-02-25 08:36:00,
2013-02-25 03:41:00,32.9,18.9,28.94,SSE,157,0.0,0.0,56,0.00,,SKC,0.00,VWS V14.00,2013-02-25 08:41:00,
2013-02-25 03:46:00,32.7,18.8,28.94,SSE,157,0.0,0.0,56,0.00,,SKC,0.00,VWS V14.00,2013-02-25 08:46:00,
2013-02-25 03:51:00,32.7,19.2,28.94,SSE,157,0.0,0.0,57,0.00,,SKC,0.00,VWS V14.00,2013-02-25 08:51:00,
2013-02-25 03:56:00,32.7,19.2,28.94,SSE,157,0.0,0.0,57,0.00,,SKC,0.00,VWS V14.00,2013-02-25 08:56:00,
2013-02-25 04:01:00,32.7,19.2,28.94,SSE,157,0.0,0.0,57,0.00,,SKC,0.00,VWS V14.00,2013-02-25 09:01:00,
2013-02-25 04:06:00,32.4,18.8,28.94,SSE,157,0.0,0.0,57,0.00,,SKC,0.00,VWS V14.00,2013-02-25 09:06:00,
2013-02-25 04:11:00,32.5,19.0,28.94,SSE,157,0.0,0.0,57,0.00,,SKC,0.00,VWS V14.00,2013-02-25 09:11:00,
2013-02-25 04:16:00,32.5,19.0,28.94,SSE,157,0.0,0.0,57,0.00,,SKC,0.00,VWS V14.00,2013-02-25 09:16:00,
2013-02-25 04:21:00,32.5,19.4,28.94,SSE,157,0.0,0.0,58,0.00,,SKC,0.00,VWS V14.00,2013-02-25 09:21:00,
2013-02-25 04:26:00,32.7,19.6,28.94,NNE,24,0.0,0.0,58,0.00,,SKC,0.00,VWS V14.00,2013-02-25 09:26:00,
2013-02-25 04:31:00,33.3,20.5,28.94,NNW,345,0.0,0.0,59,0.00,,SKC,0.00,VWS V14.00,2013-02-25 09:31:00,
2013-02-25 04:36:00,33.6,20.8,28.94,North,6,3.8,3.8,59,0.00,,SKC,0.00,VWS V14.00,2013-02-25 09:36:00,
2013-02-25 04:41:00,34.0,21.2,28.94,North,5,0.0,0.0,59,0.00,,SKC,0.00,VWS V14.00,2013-02-25 09:41:00,
2013-02-25 04:46:00,34.2,20.9,28.94,NNE,32,0.0,2.7,58,0.00,,SKC,0.00,VWS V14.00,2013-02-25 09:46:00,
2013-02-25 04:51:00,34.3,21.1,28.94,North,4,0.0,0.0,58,0.00,,SKC,0.00,VWS V14.00,2013-02-25 09:51:00,
2013-02-25 04:56:00,34.3,21.1,28.94,North,4,0.0,0.0,58,0.00,,SKC,0.00,VWS V14.00,2013-02-25 09:56:00,
2013-02-25 05:01:00,34.3,20.7,28.94,SE,145,0.0,0.0,57,0.00,,SKC,0.00,VWS V14.00,2013-02-25 10:01:00,
2013-02-25 05:06:00,34.2,20.5,28.94,SE,145,0.0,0.0,57,0.00,,SKC,0.00,VWS V14.00,2013-02-25 10:06:00,
2013-02-25 05:11:00,34.0,20.4,28.94,SE,145,0.0,0.0,57,0.00,,SKC,0.00,VWS V14.00,2013-02-25 10:11:00,
2013-02-25 05:16:00,34.0,20.4,28.94,SE,145,0.0,0.0,57,0.00,,SKC,0.00,VWS V14.00,2013-02-25 10:16:00,
2013-02-25 05:21:00,34.0,20.4,28.97,SE,145,0.0,0.0,57,0.00,,SKC,0.00,VWS V14.00,2013-02-25 10:21:00,
2013-02-25 05:26:00,34.0,20.8,28.97,NE,56,0.0,0.0,58,0.00,,SKC,0.00,VWS V14.00,2013-02-25 10:26:00,
2013-02-25 05:31:00,34.0,20.8,28.97,ENE,59,0.0,0.0,58,0.00,,SKC,0.00,VWS V14.00,2013-02-25 10:31:00,
2013-02-25 05:36:00,34.0,20.8,28.97,ENE,57,0.0,0.0,58,0.00,,SKC,0.00,VWS V14.00,2013-02-25 10:36:00,
2013-02-25 05:41:00,34.3,21.1,28.97,NNE,18,0.0,0.0,58,0.00,,SKC,0.00,VWS V14.00,2013-02-25 10:41:00,
2013-02-25 05:46:00,34.5,21.3,28.97,NNE,30,0.0,0.0,58,0.00,,SKC,0.00,VWS V14.00,2013-02-25 10:46:00,
2013-02-25 05:51:00,34.7,21.5,28.97,NNE,29,0.0,0.0,58,0.00,,SKC,0.00,VWS V14.00,2013-02-25 10:51:00,
2013-02-25 05:56:00,34.9,21.6,28.97,NNE,24,0.0,2.2,58,0.00,,SKC,0.00,VWS V14.00,2013-02-25 10:56:00,
2013-02-25 06:01:00,35.1,21.8,28.97,North,10,0.0,0.0,58,0.00,,SKC,0.00,VWS V14.00,2013-02-25 11:01:00,
2013-02-25 06:06:00,35.1,21.8,28.97,NNE,21,0.0,3.6,58,0.00,,SKC,0.00,VWS V14.00,2013-02-25 11:06:00,
2013-02-25 06:11:00,35.4,22.1,28.97,North,357,0.0,3.1,58,0.00,,SKC,0.00,VWS V14.00,2013-02-25 11:11:00,
2013-02-25 06:16:00,35.6,21.9,28.97,NNE,32,2.7,4.0,57,0.00,,SKC,0.00,VWS V14.00,2013-02-25 11:16:00,
2013-02-25 06:21:00,35.8,22.0,28.97,NNE,25,0.0,3.1,57,0.00,,SKC,0.00,VWS V14.00,2013-02-25 11:21:00,
2013-02-25 06:26:00,35.8,21.6,28.97,NNE,27,3.2,4.0,56,0.00,,SKC,0.00,VWS V14.00,2013-02-25 11:26:00,
2013-02-25 06:31:00,36.0,21.8,28.97,North,10,3.2,3.2,56,0.00,,SKC,0.00,VWS V14.00,2013-02-25 11:31:00,
2013-02-25 06:36:00,36.1,21.5,28.97,NNE,30,3.2,6.3,55,0.00,,SKC,0.00,VWS V14.00,2013-02-25 11:36:00,
2013-02-25 06:41:00,36.3,21.3,28.97,NW,316,2.7,3.1,54,0.00,,SKC,0.00,VWS V14.00,2013-02-25 11:41:00,
2013-02-25 06:46:00,36.3,21.3,28.97,North,353,4.8,4.9,54,0.00,,SKC,0.00,VWS V14.00,2013-02-25 11:46:00,
2013-02-25 06:51:00,36.1,21.1,28.97,North,7,4.3,4.3,54,0.00,,SKC,0.00,VWS V14.00,2013-02-25 11:51:00,
2013-02-25 06:56:00,36.1,21.1,28.97,North,7,4.3,5.4,54,0.00,,SKC,0.00,VWS V14.00,2013-02-25 11:56:00,
2013-02-25 07:01:00,36.1,21.1,28.97,NNE,16,0.0,3.1,54,0.00,,SKC,0.00,VWS V14.00,2013-02-25 12:01:00,
2013-02-25 07:06:00,36.0,21.0,28.97,North,7,0.0,3.6,54,0.00,,SKC,0.00,VWS V14.00,2013-02-25 12:06:00,
2013-02-25 07:11:00,36.0,21.4,28.97,NE,36,0.0,0.0,55,0.00,,SKC,0.00,VWS V14.00,2013-02-25 12:11:00,
2013-02-25 07:16:00,35.8,21.2,28.97,NNE,25,0.0,4.0,55,0.00,,SKC,0.00,VWS V14.00,2013-02-25 12:16:00,
2013-02-25 07:21:00,35.8,21.2,28.97,NNE,22,0.0,0.0,55,0.00,,SKC,0.00,VWS V14.00,2013-02-25 12:21:00,
2013-02-25 07:26:00,35.8,21.2,28.97,NE,45,0.0,5.8,55,0.00,,SKC,0.00,VWS V14.00,2013-02-25 12:26:00,
2013-02-25 07:31:00,35.8,21.2,28.97,NE,38,0.0,3.6,55,0.00,,SKC,0.00,VWS V14.00,2013-02-25 12:31:00,
2013-02-25 07:36:00,35.6,21.0,28.97,NNE,33,0.0,4.0,55,0.00,,SKC,0.00,VWS V14.00,2013-02-25 12:36:00,
2013-02-25 07:41:00,35.8,21.2,28.97,ENE,68,0.0,0.0,55,0.00,,SKC,0.00,VWS V14.00,2013-02-25 12:41:00,
2013-02-25 07:46:00,35.8,21.2,28.97,ENE,61,2.7,2.7,55,0.00,,SKC,0.00,VWS V14.00,2013-02-25 12:46:00,
2013-02-25 07:51:00,35.8,21.2,28.97,North,1,0.0,0.0,55,0.00,,SKC,0.00,VWS V14.00,2013-02-25 12:51:00,
2013-02-25 07:56:00,36.0,21.4,28.97,North,9,0.0,3.1,55,0.00,,SKC,0.00,VWS V14.00,2013-02-25 12:56:00,
2013-02-25 08:01:00,36.1,21.5,28.97,ENE,78,0.0,4.9,55,0.00,,SKC,0.00,VWS V14.00,2013-02-25 13:01:00,
2013-02-25 08:06:00,36.1,21.1,28.97,NE,34,0.0,5.8,54,0.00,,SKC,0.00,VWS V14.00,2013-02-25 13:06:00,
2013-02-25 08:11:00,36.3,21.3,28.97,NNE,32,0.0,0.0,54,0.00,,SKC,0.00,VWS V14.00,2013-02-25 13:11:00,
2013-02-25 08:16:00,36.3,21.3,28.97,NNE,15,3.8,3.8,54,0.00,,SKC,0.00,VWS V14.00,2013-02-25 13:16:00,
2013-02-25 08:21:00,36.5,21.5,28.97,NE,38,0.0,0.0,54,0.00,,SKC,0.00,VWS V14.00,2013-02-25 13:21:00,
2013-02-25 08:26:00,36.7,21.6,28.97,North,0,0.0,3.6,54,0.00,,SKC,0.00,VWS V14.00,2013-02-25 13:26:00,
2013-02-25 08:31:00,36.7,21.6,29.00,NNE,26,0.0,0.0,54,0.00,,SKC,0.00,VWS V14.00,2013-02-25 13:31:00,
2013-02-25 08:36:00,36.9,21.8,29.00,North,357,0.0,3.6,54,0.00,,SKC,0.00,VWS V14.00,2013-02-25 13:36:00,
2013-02-25 08:41:00,37.0,21.5,29.00,NNE,14,2.7,4.0,53,0.00,,SKC,0.00,VWS V14.00,2013-02-25 13:41:00,
2013-02-25 08:46:00,37.2,22.1,29.00,NE,47,2.7,4.0,54,0.00,,SKC,0.00,VWS V14.00,2013-02-25 13:46:00,
2013-02-25 08:51:00,37.4,21.9,29.00,NW,319,0.0,0.0,53,0.00,,SKC,0.00,VWS V14.00,2013-02-25 13:51:00,
2013-02-25 08:56:00,37.4,21.9,29.00,North,8,0.0,0.0,53,0.00,,SKC,0.00,VWS V14.00,2013-02-25 13:56:00,
2013-02-25 09:02:00,37.6,22.0,29.00,NNE,13,0.0,2.7,53,0.00,,SKC,0.00,VWS V14.00,2013-02-25 14:02:00,
2013-02-25 09:07:00,37.6,21.6,29.00,North,8,0.0,3.6,52,0.00,,SKC,0.00,VWS V14.00,2013-02-25 14:07:00,
2013-02-25 09:20:00,37.9,21.9,28.97,NE,37,0.0,4.9,52,0.00,,SKC,0.00,VWS V14.00,2013-02-25 14:20:00,
2013-02-25 09:27:00,38.1,22.1,28.97,North,7,3.2,5.4,52,0.00,,SKC,0.00,VWS V14.00,2013-02-25 14:27:00,
2013-02-25 09:32:00,38.5,22.4,28.97,NNE,28,0.0,2.2,52,0.00,,SKC,0.00,VWS V14.00,2013-02-25 14:32:00,
2013-02-25 09:37:00,38.7,22.6,28.97,North,353,0.0,5.4,52,0.00,,SKC,0.00,VWS V14.00,2013-02-25 14:37:00,
2013-02-25 09:42:00,38.8,22.7,28.97,NNE,13,3.2,6.3,52,0.00,,SKC,0.00,VWS V14.00,2013-02-25 14:42:00,
2013-02-25 09:47:00,39.0,22.9,28.97,NE,37,2.7,6.3,52,0.00,,SKC,0.00,VWS V14.00,2013-02-25 14:47:00,
2013-02-25 09:52:00,39.2,22.6,28.97,NNE,27,3.8,3.8,51,0.00,,SKC,0.00,VWS V14.00,2013-02-25 14:52:00,
2013-02-25 09:57:00,39.4,22.8,28.97,NNE,20,0.0,3.1,51,0.00,,SKC,0.00,VWS V14.00,2013-02-25 14:57:00,
2013-02-25 10:02:00,39.6,22.9,28.97,NE,36,0.0,0.0,51,0.00,,SKC,0.00,VWS V14.00,2013-02-25 15:02:00,
2013-02-25 10:07:00,39.9,23.3,28.97,ENE,74,0.0,4.0,51,0.00,,SKC,0.00,VWS V14.00,2013-02-25 15:07:00,
2013-02-25 10:12:00,40.1,23.4,28.97,NNE,30,0.0,0.0,51,0.00,,SKC,0.00,VWS V14.00,2013-02-25 15:12:00,
2013-02-25 10:17:00,40.5,23.8,28.97,NNE,18,0.0,3.6,51,0.00,,SKC,0.00,VWS V14.00,2013-02-25 15:17:00,
2013-02-25 10:22:00,40.5,23.8,28.97,NNE,15,4.8,4.8,51,0.00,,SKC,0.00,VWS V14.00,2013-02-25 15:22:00,
2013-02-25 10:27:00,40.6,23.9,28.97,NNW,346,0.0,4.0,51,0.00,,SKC,0.00,VWS V14.00,2013-02-25 15:27:00,
2013-02-25 10:32:00,40.8,23.6,28.97,NNE,21,0.0,4.0,50,0.00,,SKC,0.00,VWS V14.00,2013-02-25 15:32:00,
2013-02-25 10:37:00,41.0,23.8,28.97,NE,35,4.3,5.8,50,0.00,,SKC,0.00,VWS V14.00,2013-02-25 15:37:00,
2013-02-25 10:42:00,41.2,23.5,28.97,NNE,21,3.2,4.0,49,0.00,,SKC,0.00,VWS V14.00,2013-02-25 15:42:00,
2013-02-25 10:47:00,41.2,23.5,28.97,ENE,57,0.0,5.8,49,0.00,,SKC,0.00,VWS V14.00,2013-02-25 15:47:00,
2013-02-25 10:52:00,41.2,23.0,28.97,North,9,0.0,5.4,48,0.00,,SKC,0.00,VWS V14.00,2013-02-25 15:52:00,
2013-02-25 10:57:00,41.4,23.6,28.97,NNE,25,3.2,5.4,49,0.00,,SKC,0.00,VWS V14.00,2013-02-25 15:57:00,
2013-02-25 11:02:00,41.7,24.0,28.97,NNE,27,4.8,5.8,49,0.00,,SKC,0.00,VWS V14.00,2013-02-25 16:02:00,
2013-02-25 11:07:00,41.9,24.1,28.97,SSE,147,4.3,5.8,49,0.00,,SKC,0.00,VWS V14.00,2013-02-25 16:07:00,
2013-02-25 11:12:00,42.1,24.3,28.97,ENE,70,0.0,2.7,49,0.00,,SKC,0.00,VWS V14.00,2013-02-25 16:12:00,
2013-02-25 11:17:00,42.3,24.0,28.97,East,79,0.0,4.0,48,0.00,,SKC,0.00,VWS V14.00,2013-02-25 16:17:00,
2013-02-25 11:22:00,42.6,24.8,28.97,East,83,0.0,3.6,49,0.00,,SKC,0.00,VWS V14.00,2013-02-25 16:22:00,
2013-02-25 11:27:00,43.0,24.6,28.97,NNW,346,4.3,7.6,48,0.00,,SKC,0.00,VWS V14.00,2013-02-25 16:27:00,
2013-02-25 11:32:00,43.0,24.6,28.97,NE,41,4.3,4.3,48,0.00,,SKC,0.00,VWS V14.00,2013-02-25 16:32:00,
2013-02-25 11:37:00,43.2,24.3,28.97,NNE,28,2.7,4.9,47,0.00,,SKC,0.00,VWS V14.00,2013-02-25 16:37:00,
2013-02-25 11:42:00,43.5,25.1,28.97,West,278,0.0,3.1,48,0.00,,SKC,0.00,VWS V14.00,2013-02-25 16:42:00,
2013-02-25 11:47:00,43.7,25.3,28.97,NNE,24,4.8,4.8,48,0.00,,SKC,0.00,VWS V14.00,2013-02-25 16:47:00,
2013-02-25 11:52:00,44.1,25.1,28.97,NE,38,3.2,5.4,47,0.00,,SKC,0.00,VWS V14.00,2013-02-25 16:52:00,
2013-02-25 11:57:00,44.2,25.8,28.97,NNE,26,0.0,5.4,48,0.00,,SKC,0.00,VWS V14.00,2013-02-25 16:57:00,
2013-02-25 12:03:00,44.6,25.6,28.97,NE,38,0.0,0.0,47,0.00,,SKC,0.00,VWS V14.00,2013-02-25 17:03:00,
2013-02-25 12:08:00,44.8,25.8,28.97,NNW,343,0.0,2.7,47,0.00,,SKC,0.00,VWS V14.00,2013-02-25 17:08:00,
2013-02-25 12:13:00,44.6,25.1,28.97,NNW,327,0.0,3.6,46,0.00,,SKC,0.00,VWS V14.00,2013-02-25 17:13:00,
2013-02-25 12:18:00,44.2,24.3,28.94,North,7,4.3,6.3,45,0.00,,SKC,0.00,VWS V14.00,2013-02-25 17:18:00,
2013-02-25 12:23:00,44.4,25.0,28.94,NNE,16,0.0,4.0,46,0.00,,SKC,0.00,VWS V14.00,2013-02-25 17:23:00,
2013-02-25 12:28:00,44.8,24.8,28.94,North,4,0.0,4.0,45,0.00,,SKC,0.00,VWS V14.00,2013-02-25 17:28:00,
2013-02-25 12:33:00,45.3,25.2,28.94,NNE,29,0.0,4.9,45,0.00,,SKC,0.00,VWS V14.00,2013-02-25 17:33:00,
2013-02-25 12:38:00,45.9,25.7,28.94,NNE,25,2.7,4.9,45,0.00,,SKC,0.00,VWS V14.00,2013-02-25 17:38:00,
2013-02-25 12:43:00,45.7,25.6,28.94,NNE,23,2.7,5.4,45,0.00,,SKC,0.00,VWS V14.00,2013-02-25 17:43:00,
2013-02-25 12:48:00,45.7,25.0,28.94,NNE,16,3.2,5.4,44,0.00,,SKC,0.00,VWS V14.00,2013-02-25 17:48:00,
2013-02-25 12:53:00,46.0,25.4,28.94,NNE,20,2.7,4.9,44,0.00,,SKC,0.00,VWS V14.00,2013-02-25 17:53:00,
2013-02-25 12:58:00,46.4,25.7,28.94,NNE,22,3.2,4.9,44,0.00,,SKC,0.00,VWS V14.00,2013-02-25 17:58:00,
2013-02-25 13:03:00,46.6,25.3,28.91,NE,37,0.0,3.1,43,0.00,,SKC,0.00,VWS V14.00,2013-02-25 18:03:00,
2013-02-25 13:08:00,47.3,26.0,28.91,NNE,33,2.7,5.8,43,0.00,,SKC,0.00,VWS V14.00,2013-02-25 18:08:00,
2013-02-25 13:13:00,47.5,26.1,28.91,ENE,58,3.2,6.7,43,0.00,,SKC,0.00,VWS V14.00,2013-02-25 18:13:00,
2013-02-25 13:18:00,48.0,26.0,28.91,NE,34,6.4,6.7,42,0.00,,SKC,0.00,VWS V14.00,2013-02-25 18:18:00,
2013-02-25 13:23:00,48.7,26.7,28.91,North,4,4.8,5.8,42,0.00,,SKC,0.00,VWS V14.00,2013-02-25 18:23:00,
2013-02-25 13:28:00,49.5,27.9,28.91,WNW,283,0.0,5.8,43,0.00,,SKC,0.00,VWS V14.00,2013-02-25 18:28:00,
2013-02-25 13:33:00,50.0,27.8,28.91,North,0,0.0,0.0,42,0.00,,SKC,0.00,VWS V14.00,2013-02-25 18:33:00,
2013-02-25 13:38:00,50.7,28.5,28.91,ESE,102,0.0,3.6,42,0.00,,SKC,0.00,VWS V14.00,2013-02-25 18:38:00,
2013-02-25 13:43:00,51.1,28.8,28.91,North,2,0.0,3.6,42,0.00,,SKC,0.00,VWS V14.00,2013-02-25 18:43:00,
2013-02-25 13:48:00,51.6,29.3,28.91,WNW,294,0.0,3.6,42,0.00,,SKC,0.00,VWS V14.00,2013-02-25 18:48:00,
2013-02-25 13:53:00,52.0,29.0,28.91,NW,324,0.0,3.1,41,0.00,,SKC,0.00,VWS V14.00,2013-02-25 18:53:00,
2013-02-25 13:58:00,52.7,29.1,28.91,NW,313,0.0,3.6,40,0.00,,SKC,0.00,VWS V14.00,2013-02-25 18:58:00,
2013-02-25 14:03:00,53.1,29.4,28.91,NE,43,0.0,2.7,40,0.00,,SKC,0.00,VWS V14.00,2013-02-25 19:03:00,
2013-02-25 14:08:00,53.2,29.6,28.91,NE,47,0.0,3.1,40,0.00,,SKC,0.00,VWS V14.00,2013-02-25 19:08:00,
2013-02-25 14:13:00,53.4,29.1,28.91,NE,44,0.0,0.0,39,0.00,,SKC,0.00,VWS V14.00,2013-02-25 19:13:00,
2013-02-25 14:18:00,53.8,29.4,28.91,North,0,3.2,3.2,39,0.00,,SKC,0.00,VWS V14.00,2013-02-25 19:18:00,
2013-02-25 14:23:00,54.3,29.9,28.91,North,0,0.0,4.0,39,0.00,,SKC,0.00,VWS V14.00,2013-02-25 19:23:00,
2013-02-25 14:28:00,54.5,30.1,28.91,NNE,12,3.8,4.0,39,0.00,,SKC,0.00,VWS V14.00,2013-02-25 19:28:00,
2013-02-25 14:33:00,55.0,29.9,28.91,NE,36,0.0,3.6,38,0.00,,SKC,0.00,VWS V14.00,2013-02-25 19:33:00,
2013-02-25 14:38:00,55.0,29.9,28.91,NNE,32,4.3,5.8,38,0.00,,SKC,0.00,VWS V14.00,2013-02-25 19:38:00,
2013-02-25 14:43:00,55.4,29.6,28.91,North,11,0.0,5.4,37,0.00,,SKC,0.00,VWS V14.00,2013-02-25 19:43:00,
2013-02-25 14:48:00,55.9,30.1,28.88,NNW,334,0.0,5.4,37,0.00,,SKC,0.00,VWS V14.00,2013-02-25 19:48:00,
2013-02-25 14:53:00,55.9,30.1,28.88,North,2,0.0,4.9,37,0.00,,SKC,0.00,VWS V14.00,2013-02-25 19:53:00,
2013-02-25 14:58:00,55.8,29.9,28.88,South,169,3.2,4.9,37,0.00,,SKC,0.00,VWS V14.00,2013-02-25 19:58:00,
2013-02-25 15:03:00,55.4,28.9,28.88,NE,37,4.8,4.8,36,0.00,,SKC,0.00,VWS V14.00,2013-02-25 20:03:00,
2013-02-25 15:08:00,55.6,29.1,28.88,ENE,67,3.2,4.5,36,0.00,,SKC,0.00,VWS V14.00,2013-02-25 20:08:00,
2013-02-25 15:13:00,56.1,29.5,28.88,North,5,3.2,4.0,36,0.00,,SKC,0.00,VWS V14.00,2013-02-25 20:13:00,
2013-02-25 15:18:00,56.3,29.7,28.88,North,2,0.0,4.0,36,0.00,,SKC,0.00,VWS V14.00,2013-02-25 20:18:00,
2013-02-25 15:23:00,56.5,29.9,28.88,NE,35,5.9,5.9,36,0.00,,SKC,0.00,VWS V14.00,2013-02-25 20:23:00,
2013-02-25 15:28:00,56.7,30.0,28.88,NW,314,2.7,4.9,36,0.00,,SKC,0.00,VWS V14.00,2013-02-25 20:28:00,
2013-02-25 15:33:00,56.8,30.2,28.85,NNE,21,0.0,4.5,36,0.00,,SKC,0.00,VWS V14.00,2013-02-25 20:33:00,
2013-02-25 15:38:00,56.5,29.9,28.85,NNE,15,3.2,5.8,36,0.00,,SKC,0.00,VWS V14.00,2013-02-25 20:38:00,
2013-02-25 15:43:00,56.3,29.7,28.85,ESE,109,0.0,0.0,36,0.00,,SKC,0.00,VWS V14.00,2013-02-25 20:43:00,
2013-02-25 15:48:00,56.1,29.5,28.85,NNE,26,0.0,4.0,36,0.00,,SKC,0.00,VWS V14.00,2013-02-25 20:48:00,
2013-02-25 15:53:00,55.9,29.4,28.85,West,277,0.0,3.1,36,0.00,,SKC,0.00,VWS V14.00,2013-02-25 20:53:00,
2013-02-25 15:58:00,55.9,29.4,28.85,ENE,58,0.0,3.1,36,0.00,,SKC,0.00,VWS V14.00,2013-02-25 20:58:00,
2013-02-25 16:03:00,55.8,29.2,28.85,East,87,0.0,4.9,36,0.00,,SKC,0.00,VWS V14.00,2013-02-25 21:03:00,
2013-02-25 16:08:00,55.9,29.4,28.85,NE,52,0.0,4.9,36,0.00,,SKC,0.00,VWS V14.00,2013-02-25 21:08:00,
2013-02-25 16:13:00,56.1,29.5,28.85,WNW,293,0.0,3.6,36,0.00,,SKC,0.00,VWS V14.00,2013-02-25 21:13:00,
2013-02-25 16:18:00,56.1,29.5,28.85,NNE,31,7.0,7.0,36,0.00,,SKC,0.00,VWS V14.00,2013-02-25 21:18:00,
2013-02-25 16:23:00,55.9,29.4,28.85,NE,43,0.0,3.1,36,0.00,,SKC,0.00,VWS V14.00,2013-02-25 21:23:00,
2013-02-25 16:28:00,55.9,29.4,28.85,NNE,14,0.0,3.6,36,0.00,,SKC,0.00,VWS V14.00,2013-02-25 21:28:00,
2013-02-25 16:33:00,55.8,29.2,28.85,NE,35,0.0,4.9,36,0.00,,SKC,0.00,VWS V14.00,2013-02-25 21:33:00,
2013-02-25 16:38:00,55.8,29.2,28.85,NNE,33,2.7,7.2,36,0.00,,SKC,0.00,VWS V14.00,2013-02-25 21:38:00,
2013-02-25 16:43:00,55.8,29.2,28.85,NNE,12,3.2,6.7,36,0.00,,SKC,0.00,VWS V14.00,2013-02-25 21:43:00,
2013-02-25 16:48:00,55.6,28.4,28.85,NNE,32,2.7,6.7,35,0.00,,SKC,0.00,VWS V14.00,2013-02-25 21:48:00,
2013-02-25 16:53:00,55.2,28.8,28.85,NE,36,0.0,3.1,36,0.00,,SKC,0.00,VWS V14.00,2013-02-25 21:53:00,
2013-02-25 16:58:00,55.2,28.8,28.85,NNE,15,0.0,3.1,36,0.00,,SKC,0.00,VWS V14.00,2013-02-25 21:58:00,
2013-02-25 17:03:00,55.2,28.8,28.82,NNE,17,0.0,3.1,36,0.00,,SKC,0.00,VWS V14.00,2013-02-25 22:03:00,
2013-02-25 17:08:00,55.2,28.8,28.82,NNE,33,3.2,3.6,36,0.00,,SKC,0.00,VWS V14.00,2013-02-25 22:08:00,
2013-02-25 17:13:00,55.0,28.6,28.82,NNE,28,3.2,3.6,36,0.00,,SKC,0.00,VWS V14.00,2013-02-25 22:13:00,
2013-02-25 17:18:00,55.0,28.6,28.82,NE,39,4.8,6.3,36,0.00,,SKC,0.00,VWS V14.00,2013-02-25 22:18:00,
2013-02-25 17:23:00,55.0,28.6,28.82,North,353,3.8,5.4,36,0.00,,SKC,0.00,VWS V14.00,2013-02-25 22:23:00,
2013-02-25 17:28:00,54.9,28.4,28.82,North,357,4.8,5.8,36,0.00,,SKC,0.00,VWS V14.00,2013-02-25 22:28:00,
2013-02-25 17:33:00,54.5,28.1,28.82,North,9,0.0,2.7,36,0.00,,SKC,0.00,VWS V14.00,2013-02-25 22:33:00,
2013-02-25 17:38:00,54.1,27.8,28.82,NNE,21,0.0,4.0,36,0.00,,SKC,0.00,VWS V14.00,2013-02-25 22:38:00,
2013-02-25 17:43:00,54.0,27.6,28.82,NE,34,0.0,3.6,36,0.00,,SKC,0.00,VWS V14.00,2013-02-25 22:43:00,
2013-02-25 17:48:00,53.8,27.5,28.82,NE,41,0.0,3.6,36,0.00,,SKC,0.00,VWS V14.00,2013-02-25 22:48:00,
2013-02-25 17:53:00,53.8,27.5,28.82,ENE,66,0.0,2.7,36,0.00,,SKC,0.00,VWS V14.00,2013-02-25 22:53:00,
2013-02-25 17:58:00,53.6,27.3,28.82,NNE,18,0.0,2.7,36,0.00,,SKC,0.00,VWS V14.00,2013-02-25 22:58:00,
2013-02-25 18:03:00,53.2,27.7,28.82,NNE,24,0.0,0.0,37,0.00,,SKC,0.00,VWS V14.00,2013-02-25 23:03:00,
2013-02-25 18:08:00,52.9,27.3,28.82,NNE,21,0.0,0.0,37,0.00,,SKC,0.00,VWS V14.00,2013-02-25 23:08:00,
2013-02-25 18:13:00,52.5,27.0,28.82,NNE,21,0.0,0.0,37,0.00,,SKC,0.00,VWS V14.00,2013-02-25 23:13:00,
2013-02-25 18:18:00,52.2,26.7,28.79,NNE,21,0.0,0.0,37,0.00,,SKC,0.00,VWS V14.00,2013-02-25 23:18:00,
2013-02-25 18:23:00,51.8,26.4,28.79,NNE,21,0.0,0.0,37,0.00,,SKC,0.00,VWS V14.00,2013-02-25 23:23:00,
2013-02-25 18:28:00,51.4,26.0,28.79,NNE,21,0.0,0.0,37,0.00,,SKC,0.00,VWS V14.00,2013-02-25 23:28:00,
2013-02-25 18:33:00,51.1,25.7,28.79,NNE,21,0.0,0.0,37,0.00,,SKC,0.00,VWS V14.00,2013-02-25 23:33:00,
2013-02-25 18:39:00,50.7,25.4,28.79,NNE,21,0.0,0.0,37,0.00,,SKC,0.00,VWS V14.00,2013-02-25 23:39:00,
2013-02-25 18:44:00,50.5,25.9,28.79,NNE,21,0.0,0.0,38,0.00,,SKC,0.00,VWS V14.00,2013-02-25 23:44:00,
2013-02-25 18:49:00,50.2,25.6,28.79,NNE,21,0.0,0.0,38,0.00,,SKC,0.00,VWS V14.00,2013-02-25 23:49:00,
2013-02-25 18:54:00,49.5,24.9,28.79,NNE,21,0.0,0.0,38,0.00,,SKC,0.00,VWS V14.00,2013-02-25 23:54:00,
2013-02-25 18:59:00,49.1,25.2,28.79,NNE,32,0.0,0.0,39,0.00,,SKC,0.00,VWS V14.00,2013-02-25 23:59:00,
2013-02-25 19:04:00,49.1,25.2,28.79,NE,44,0.0,0.0,39,0.00,,SKC,0.00,VWS V14.00,2013-02-26 00:04:00,
2013-02-25 19:09:00,48.9,25.1,28.79,NE,43,0.0,0.0,39,0.00,,SKC,0.00,VWS V14.00,2013-02-26 00:09:00,
2013-02-25 19:14:00,48.7,24.9,28.79,NE,43,0.0,0.0,39,0.00,,SKC,0.00,VWS V14.00,2013-02-26 00:14:00,
2013-02-25 19:19:00,48.6,24.7,28.79,NE,43,0.0,0.0,39,0.00,,SKC,0.00,VWS V14.00,2013-02-26 00:19:00,
2013-02-25 19:24:00,48.6,25.4,28.79,NE,43,0.0,0.0,40,0.00,,SKC,0.00,VWS V14.00,2013-02-26 00:24:00,
2013-02-25 19:29:00,48.2,25.0,28.79,NE,43,0.0,0.0,40,0.00,,SKC,0.00,VWS V14.00,2013-02-26 00:29:00,
2013-02-25 19:34:00,48.2,25.0,28.79,NE,43,0.0,0.0,40,0.00,,SKC,0.00,VWS V14.00,2013-02-26 00:34:00,
2013-02-25 19:39:00,48.0,25.5,28.79,NE,43,0.0,0.0,41,0.00,,SKC,0.00,VWS V14.00,2013-02-26 00:39:00,
2013-02-25 19:44:00,48.0,25.5,28.79,NE,43,0.0,0.0,41,0.00,,SKC,0.00,VWS V14.00,2013-02-26 00:44:00,
2013-02-25 19:49:00,47.7,25.1,28.79,NE,43,0.0,0.0,41,0.00,,SKC,0.00,VWS V14.00,2013-02-26 00:49:00,
2013-02-25 19:54:00,47.3,24.8,28.79,NE,43,0.0,0.0,41,0.00,,SKC,0.00,VWS V14.00,2013-02-26 00:54:00,
2013-02-25 19:59:00,47.3,25.4,28.79,NE,43,0.0,0.0,42,0.00,,SKC,0.00,VWS V14.00,2013-02-26 00:59:00,
2013-02-25 20:04:00,47.1,25.2,28.79,NE,43,0.0,0.0,42,0.00,,SKC,0.00,VWS V14.00,2013-02-26 01:04:00,
2013-02-25 20:09:00,47.1,25.2,28.79,SSW,207,0.0,0.0,42,0.00,,SKC,0.00,VWS V14.00,2013-02-26 01:09:00,
2013-02-25 20:14:00,47.1,25.8,28.79,SSW,207,0.0,0.0,43,0.00,,SKC,0.00,VWS V14.00,2013-02-26 01:14:00,
2013-02-25 20:19:00,46.9,25.6,28.79,SSW,205,0.0,0.0,43,0.00,,SKC,0.00,VWS V14.00,2013-02-26 01:19:00,
2013-02-25 20:24:00,46.8,25.5,28.79,SSW,205,0.0,0.0,43,0.00,,SKC,0.00,VWS V14.00,2013-02-26 01:24:00,
2013-02-25 20:29:00,46.8,25.5,28.79,SSW,205,0.0,0.0,43,0.00,,SKC,0.00,VWS V14.00,2013-02-26 01:29:00,
2013-02-25 20:34:00,46.6,25.9,28.76,SSW,205,0.0,0.0,44,0.00,,SKC,0.00,VWS V14.00,2013-02-26 01:34:00,
2013-02-25 20:39:00,46.8,26.0,28.76,SSW,205,0.0,0.0,44,0.00,,SKC,0.00,VWS V14.00,2013-02-26 01:39:00,
2013-02-25 20:44:00,46.8,26.6,28.76,SSW,205,0.0,0.0,45,0.00,,SKC,0.00,VWS V14.00,2013-02-26 01:44:00,
2013-02-25 20:49:00,46.8,26.6,28.79,NE,38,0.0,0.0,45,0.00,,SKC,0.00,VWS V14.00,2013-02-26 01:49:00,
2013-02-25 20:54:00,46.8,27.1,28.79,NE,44,0.0,0.0,46,0.00,,SKC,0.00,VWS V14.00,2013-02-26 01:54:00,
2013-02-25 20:59:00,46.8,27.1,28.79,NE,45,0.0,0.0,46,0.00,,SKC,0.00,VWS V14.00,2013-02-26 01:59:00,
2013-02-25 21:04:00,46.9,27.3,28.79,NE,45,0.0,0.0,46,0.00,,SKC,0.00,VWS V14.00,2013-02-26 02:04:00,
2013-02-25 21:09:00,46.9,27.8,28.79,NE,42,0.0,0.0,47,0.00,,SKC,0.00,VWS V14.00,2013-02-26 02:09:00,
2013-02-25 21:14:00,47.1,27.9,28.79,NE,49,0.0,0.0,47,0.00,,SKC,0.00,VWS V14.00,2013-02-26 02:14:00,
2013-02-25 21:19:00,47.1,28.5,28.79,NE,49,0.0,0.0,48,0.00,,SKC,0.00,VWS V14.00,2013-02-26 02:19:00,
2013-02-25 21:24:00,47.3,28.1,28.79,NE,49,0.0,0.0,47,0.00,,SKC,0.00,VWS V14.00,2013-02-26 02:24:00,
2013-02-25 21:29:00,47.3,28.6,28.79,NE,49,0.0,0.0,48,0.00,,SKC,0.00,VWS V14.00,2013-02-26 02:29:00,
2013-02-25 21:34:00,47.3,28.6,28.79,NE,49,0.0,0.0,48,0.00,,SKC,0.00,VWS V14.00,2013-02-26 02:34:00,
2013-02-25 21:39:00,47.3,28.6,28.79,NE,49,0.0,0.0,48,0.00,,SKC,0.00,VWS V14.00,2013-02-26 02:39:00,
2013-02-25 21:44:00,47.5,28.8,28.79,NE,49,0.0,0.0,48,0.00,,SKC,0.00,VWS V14.00,2013-02-26 02:44:00,
2013-02-25 21:49:00,47.5,28.8,28.76,NE,49,0.0,0.0,48,0.00,,SKC,0.00,VWS V14.00,2013-02-26 02:49:00,
2013-02-25 21:54:00,47.5,28.8,28.76,NE,49,0.0,0.0,48,0.00,,SKC,0.00,VWS V14.00,2013-02-26 02:54:00,
2013-02-25 21:59:00,47.5,28.8,28.76,NE,49,0.0,0.0,48,0.00,,SKC,0.00,VWS V14.00,2013-02-26 02:59:00,
2013-02-25 22:04:00,47.7,29.0,28.76,NE,49,0.0,0.0,48,0.00,,SKC,0.00,VWS V14.00,2013-02-26 03:04:00,
2013-02-25 22:09:00,47.7,29.0,28.76,NE,49,0.0,0.0,48,0.00,,SKC,0.00,VWS V14.00,2013-02-26 03:09:00,
2013-02-25 22:14:00,47.8,29.1,28.76,NE,49,0.0,0.0,48,0.00,,SKC,0.00,VWS V14.00,2013-02-26 03:14:00,
2013-02-25 22:19:00,48.0,29.3,28.73,NNE,20,0.0,0.0,48,0.00,,SKC,0.00,VWS V14.00,2013-02-26 03:19:00,
2013-02-25 22:24:00,48.2,28.9,28.73,NNE,26,0.0,0.0,47,0.00,,SKC,0.00,VWS V14.00,2013-02-26 03:24:00,
2013-02-25 22:29:00,48.4,29.1,28.73,ENE,59,0.0,0.0,47,0.00,,SKC,0.00,VWS V14.00,2013-02-26 03:29:00,
2013-02-25 22:34:00,48.4,29.1,28.76,ENE,59,0.0,0.0,47,0.00,,SKC,0.00,VWS V14.00,2013-02-26 03:34:00,
2013-02-25 22:39:00,48.4,29.1,28.76,ENE,59,0.0,0.0,47,0.00,,SKC,0.00,VWS V14.00,2013-02-26 03:39:00,
2013-02-25 22:44:00,48.4,29.1,28.76,SW,217,0.0,4.0,47,0.00,,SKC,0.00,VWS V14.00,2013-02-26 03:44:00,
2013-02-25 22:49:00,48.4,29.1,28.76,NE,45,0.0,4.0,47,0.00,,SKC,0.00,VWS V14.00,2013-02-26 03:49:00,
2013-02-25 22:54:00,48.4,29.1,28.76,ENE,57,0.0,0.0,47,0.00,,SKC,0.00,VWS V14.00,2013-02-26 03:54:00,
2013-02-25 22:59:00,48.2,28.9,28.76,NE,52,0.0,0.0,47,0.00,,SKC,0.00,VWS V14.00,2013-02-26 03:59:00,
2013-02-25 23:04:00,48.4,29.1,28.73,ENE,71,0.0,0.0,47,0.00,,SKC,0.00,VWS V14.00,2013-02-26 04:04:00,
2013-02-25 23:09:00,48.2,28.9,28.73,East,79,0.0,0.0,47,0.00,,SKC,0.00,VWS V14.00,2013-02-26 04:09:00,
2013-02-25 23:14:00,48.4,28.6,28.73,SSW,196,0.0,0.0,46,0.00,,SKC,0.00,VWS V14.00,2013-02-26 04:14:00,
2013-02-25 23:19:00,48.4,28.6,28.76,SSW,196,0.0,0.0,46,0.00,,SKC,0.00,VWS V14.00,2013-02-26 04:19:00,
2013-02-25 23:24:00,48.4,28.6,28.76,NNE,29,0.0,0.0,46,0.00,,SKC,0.00,VWS V14.00,2013-02-26 04:24:00,
2013-02-25 23:29:00,48.6,28.7,28.76,NNE,26,0.0,0.0,46,0.00,,SKC,0.00,VWS V14.00,2013-02-26 04:29:00,
2013-02-25 23:34:00,48.6,28.7,28.73,SSW,207,0.0,0.0,46,0.00,,SKC,0.00,VWS V14.00,2013-02-26 04:34:00,
2013-02-25 23:39:00,48.6,28.7,28.73,SSW,207,0.0,0.0,46,0.00,,SKC,0.00,VWS V14.00,2013-02-26 04:39:00,
2013-02-25 23:44:00,48.6,28.7,28.73,South,173,0.0,0.0,46,0.00,,SKC,0.00,VWS V14.00,2013-02-26 04:44:00,
2013-02-25 23:49:00,48.4,28.6,28.73,NE,46,0.0,0.0,46,0.00,,SKC,0.00,VWS V14.00,2013-02-26 04:49:00,
2013-02-25 23:54:00,48.6,28.7,28.73,North,353,0.0,0.0,46,0.00,,SKC,0.00,VWS V14.00,2013-02-26 04:54:00,
2013-02-25 23:59:00,48.6,28.7,28.73,SSW,207,0.0,0.0,46,0.00,,SKC,0.00,VWS V14.00,2013-02-26 04:59:00,